Hourly Weather Al Karnak

Today, 1 December, Tuesday

Time Temperature Precipitation Wind Pressure Humidity
00:00 +15°C° 0 mm 1 mps 752 mmHg 42%
01:00 +14°C° 0 mm 1 mps 752 mmHg 44%
02:00 +13°C° 0 mm 1 mps 751 mmHg 47%
03:00 +12°C° 0 mm 0 mps 751 mmHg 48%
04:00 +12°C° 0 mm 0 mps 751 mmHg 50%
05:00 +12°C° 0 mm 0 mps 751 mmHg 52%
06:00 +15°C° 0 mm 1 mps 751 mmHg 45%
07:00 +18°C° 0 mm 1 mps 752 mmHg 39%
08:00 +19°C° 0 mm 2 mps 752 mmHg 32%
09:00 +21°C° 0 mm 2 mps 752 mmHg 29%
10:00 +22°C° 0 mm 3 mps 752 mmHg 26%
11:00 +25°C° 0 mm 4 mps 752 mmHg 23%
12:00 +25°C° 0 mm 4 mps 751 mmHg 21%
13:00 +26°C° 0 mm 4 mps 750 mmHg 19%
14:00 +27°C° 0 mm 4 mps 750 mmHg 18%
15:00 +25°C° 0 mm 4 mps 750 mmHg 18%
16:00 +22°C° 0 mm 4 mps 750 mmHg 18%
17:00 +21°C° 0 mm 4 mps 750 mmHg 19%
18:00 +19°C° 0 mm 4 mps 751 mmHg 23%
19:00 +18°C° 0 mm 3 mps 751 mmHg 26%
20:00 +17°C° 0 mm 3 mps 752 mmHg 30%
21:00 +16°C° 0 mm 2 mps 752 mmHg 33%
22:00 +15°C° 0 mm 2 mps 752 mmHg 35%
23:00 +14°C° 0 mm 2 mps 752 mmHg 38%

Tomorrow, 2 December, Wednesday

Time Temperature Precipitation Wind Pressure Humidity
00:00 +14°C° 0 mm 1 mps 752 mmHg 40%
01:00 +13°C° 0 mm 1 mps 752 mmHg 42%
02:00 +12°C° 0 mm 1 mps 752 mmHg 44%
03:00 +12°C° 0 mm 1 mps 752 mmHg 46%
04:00 +12°C° 0 mm 1 mps 752 mmHg 48%
05:00 +11°C° 0 mm 1 mps 752 mmHg 50%
06:00 +13°C° 0 mm 1 mps 753 mmHg 45%
07:00 +15°C° 0 mm 1 mps 753 mmHg 40%
08:00 +18°C° 0 mm 1 mps 753 mmHg 34%
09:00 +20°C° 0 mm 1 mps 753 mmHg 34%
10:00 +21°C° 0 mm 1 mps 753 mmHg 33%
11:00 +23°C° 0 mm 1 mps 753 mmHg 33%
12:00 +24°C° 0 mm 2 mps 752 mmHg 31%
13:00 +24°C° 0 mm 2 mps 752 mmHg 29%
14:00 +25°C° 0 mm 2 mps 751 mmHg 27%
15:00 +23°C° 0 mm 2 mps 751 mmHg 31%
16:00 +20°C° 0 mm 2 mps 751 mmHg 35%
17:00 +19°C° 0 mm 2 mps 751 mmHg 39%
18:00 +18°C° 0 mm 2 mps 752 mmHg 43%
19:00 +18°C° 0 mm 1 mps 752 mmHg 47%
20:00 +16°C° 0 mm 1 mps 753 mmHg 51%
21:00 +15°C° 0 mm 1 mps 753 mmHg 55%
22:00 +15°C° 0 mm 1 mps 753 mmHg 59%
23:00 +15°C° 0 mm 1 mps 753 mmHg 63%

Day after tomorrow, 3 December, Thursday

Time Temperature Precipitation Wind Pressure Humidity
00:00 +14°C° 0 mm 1 mps 753 mmHg 66%
01:00 +13°C° 0 mm 1 mps 753 mmHg 69%
02:00 +13°C° 0 mm 1 mps 753 mmHg 72%
03:00 +12°C° 0 mm 1 mps 753 mmHg 74%
04:00 +12°C° 0 mm 1 mps 753 mmHg 75%
05:00 +11°C° 0 mm 0 mps 753 mmHg 77%
06:00 +13°C° 0 mm 0 mps 753 mmHg 67%
07:00 +15°C° 0 mm 0 mps 754 mmHg 58%
08:00 +17°C° 0 mm 0 mps 754 mmHg 48%
09:00 +18°C° 0 mm 0 mps 754 mmHg 43%
10:00 +20°C° 0 mm 0 mps 753 mmHg 38%
11:00 +22°C° 0 mm 0 mps 753 mmHg 33%
12:00 +22°C° 0 mm 0 mps 753 mmHg 30%
13:00 +23°C° 0 mm 0 mps 752 mmHg 28%
14:00 +24°C° 0 mm 0 mps 751 mmHg 25%
15:00 +24°C° 0 mm 1 mps 751 mmHg 29%
16:00 +21°C° 0 mm 1 mps 751 mmHg 33%
17:00 +19°C° 0 mm 1 mps 751 mmHg 37%
18:00 +18°C° 0 mm 1 mps 751 mmHg 40%
19:00 +18°C° 0 mm 1 mps 752 mmHg 42%
20:00 +16°C° 0 mm 1 mps 752 mmHg 44%
21:00 +16°C° 0 mm 1 mps 752 mmHg 45%
22:00 +16°C° 0 mm 2 mps 752 mmHg 45%
23:00 +16°C° 0 mm 2 mps 752 mmHg 46%

4 December, Friday

Time Temperature Precipitation Wind Pressure Humidity
00:00 +15°C° 0 mm 2 mps 752 mmHg 51%
01:00 +14°C° 0 mm 1 mps 752 mmHg 56%
02:00 +12°C° 0 mm 0 mps 751 mmHg 61%
03:00 +11°C° 0 mm 0 mps 751 mmHg 64%
04:00 +11°C° 0 mm 0 mps 752 mmHg 67%
05:00 +11°C° 0 mm 0 mps 752 mmHg 71%
06:00 +13°C° 0 mm 0 mps 752 mmHg 61%
07:00 +15°C° 0 mm 0 mps 752 mmHg 50%
08:00 +17°C° 0 mm 0 mps 753 mmHg 40%
09:00 +19°C° 0 mm 0 mps 753 mmHg 36%
10:00 +23°C° 0 mm 1 mps 753 mmHg 33%
11:00 +24°C° 0 mm 1 mps 753 mmHg 29%
12:00 +25°C° 0 mm 2 mps 752 mmHg 26%
13:00 +26°C° 0 mm 3 mps 751 mmHg 24%
14:00 +27°C° 0 mm 3 mps 751 mmHg 21%
15:00 +25°C° 0 mm 3 mps 751 mmHg 24%
16:00 +22°C° 0 mm 3 mps 751 mmHg 27%
17:00 +20°C° 0 mm 2 mps 751 mmHg 30%
18:00 +19°C° 0 mm 2 mps 752 mmHg 32%
19:00 +18°C° 0 mm 2 mps 752 mmHg 33%
20:00 +17°C° 0 mm 2 mps 752 mmHg 35%
21:00 +17°C° 0 mm 2 mps 752 mmHg 37%
22:00 +16°C° 0 mm 2 mps 752 mmHg 38%
23:00 +15°C° 0 mm 1 mps 752 mmHg 40%

5 December, Saturday

Time Temperature Precipitation Wind Pressure Humidity
00:00 +15°C° 0 mm 1 mps 752 mmHg 43%
01:00 +14°C° 0 mm 1 mps 752 mmHg 45%
02:00 +13°C° 0 mm 1 mps 752 mmHg 47%
03:00 +13°C° 0 mm 1 mps 752 mmHg 50%
04:00 +11°C° 0 mm 0 mps 752 mmHg 53%
05:00 +11°C° 0 mm 0 mps 752 mmHg 56%
06:00 +13°C° 0 mm 0 mps 753 mmHg 48%
07:00 +16°C° 0 mm 1 mps 753 mmHg 41%
08:00 +20°C° 0 mm 1 mps 753 mmHg 34%
09:00 +21°C° 0 mm 1 mps 753 mmHg 31%
10:00 +23°C° 0 mm 1 mps 753 mmHg 28%
11:00 +24°C° 0 mm 1 mps 753 mmHg 25%
12:00 +25°C° 0 mm 1 mps 752 mmHg 23%
13:00 +26°C° 0 mm 2 mps 752 mmHg 21%
14:00 +27°C° 0 mm 2 mps 751 mmHg 19%
15:00 +25°C° 0 mm 2 mps 751 mmHg 22%
16:00 +24°C° 0 mm 3 mps 751 mmHg 24%
17:00 +21°C° 0 mm 3 mps 751 mmHg 26%
18:00 +20°C° 0 mm 2 mps 752 mmHg 28%
19:00 +19°C° 0 mm 2 mps 752 mmHg 30%
20:00 +18°C° 0 mm 2 mps 753 mmHg 32%
21:00 +17°C° 0 mm 2 mps 753 mmHg 34%
22:00 +16°C° 0 mm 2 mps 753 mmHg 36%
23:00 +15°C° 0 mm 2 mps 753 mmHg 39%

6 December, Sunday

Time Temperature Precipitation Wind Pressure Humidity
00:00 +15°C° 0 mm 2 mps 753 mmHg 41%
01:00 +14°C° 0 mm 1 mps 753 mmHg 43%
02:00 +13°C° 0 mm 1 mps 753 mmHg 46%
03:00 +12°C° 0 mm 1 mps 753 mmHg 49%
04:00 +12°C° 0 mm 1 mps 753 mmHg 51%
05:00 +12°C° 0 mm 1 mps 753 mmHg 54%
06:00 +14°C° 0 mm 1 mps 753 mmHg 48%
07:00 +16°C° 0 mm 1 mps 754 mmHg 43%
08:00 +19°C° 0 mm 1 mps 754 mmHg 37%
09:00 +20°C° 0 mm 1 mps 754 mmHg 33%
10:00 +22°C° 0 mm 1 mps 753 mmHg 29%
11:00 +24°C° 0 mm 1 mps 753 mmHg 26%
12:00 +25°C° 0 mm 1 mps 753 mmHg 23%
13:00 +26°C° 0 mm 2 mps 752 mmHg 21%
14:00 +27°C° 0 mm 2 mps 752 mmHg 18%
15:00 +25°C° 0 mm 2 mps 752 mmHg 21%
16:00 +23°C° 0 mm 2 mps 752 mmHg 24%
17:00 +20°C° 0 mm 2 mps 752 mmHg 26%
18:00 +19°C° 0 mm 1 mps 752 mmHg 29%
19:00 +18°C° 0 mm 1 mps 752 mmHg 32%
20:00 +16°C° 0 mm 1 mps 753 mmHg 34%
21:00 +16°C° 0 mm 1 mps 753 mmHg 37%
22:00 +16°C° 0 mm 1 mps 753 mmHg 40%
23:00 +15°C° 0 mm 2 mps 753 mmHg 43%
Show more